Weather History for Prescott, AZ

Change the Weather History Date:

Thursday, September 15, 2011

  Actual Average Record
Temperature  
Mean Temperature 63 °F 68 °F  
Max Temperature 73 °F 82 °F 94 °F (1956)
Min Temperature 53 °F 54 °F 41 °F (1970)
Degree Days  
Heating Degree Days 2    
Month to date heating degree days  
Since 1 July heating degree days  
Cooling Degree Days 0    
Month to date cooling degree days  
Year to date cooling degree days  
Growing Degree Days 13 (Base 50)    
Moisture  
Dew Point 47 °F    
Average Humidity 58    
Maximum Humidity 80    
Minimum Humidity 37    
Precipitation  
Precipitation 0.00 in 0.05 in 0.87 in (2001)
Month to date precipitation 0.83  
Year to date precipitation 10.49  
Sea Level Pressure  
Sea Level Pressure 29.91 in    
Wind  
Wind Speed 6 mph (SSW)    
Max Wind Speed 14 mph    
Max Gust Speed 21 mph    
Visibility 10 miles    
Events      
T = Trace of Precipitation, MM = Missing Value Source: NWS Daily Summary

Daily Weather History Graph

Daily Weather History Graph

Search for Another Location

Airport:

Trip Planner

Search our weather history database for the weather conditions in past years. The results will help you decide how hot, cold, wet, or windy it might be!

Date:

Astronomy

Sep. 15, 2011 Rise Set
Actual Time 6:12 AM MST 6:36 PM MST
Civil Twilight 5:47 AM MST 7:01 PM MST
Nautical Twilight 5:17 AM MST 7:31 PM MST
Astronomical Twilight 4:47 AM MST 8:01 PM MST
Moon 8:06 PM MST (9/15) 9:12 AM MST (9/15)
Length of Visible Light 13h 14m
Length of Day
12h 24m
Waning Gibbous, 90% of the Moon is Illuminated
Sep 15
Waning Gibbous
Sep 20
Last Quarter
Sep 27
New
Oct 3
First Quarter
Oct 11
Full

Hourly Weather History & Observations

Time (MST) Temp. Dew Point Humidity Pressure Visibility Wind Dir Wind Speed Gust Speed Precip Events Conditions
12:53 AM 55.4 °F 48.2 °F 77% 30.06 in 10.0 mi SSW 5.8 mph - N/A   Clear
1:53 AM 55.4 °F 46.4 °F 72% 30.05 in 10.0 mi SSW 5.8 mph - N/A   Clear
2:53 AM 55.0 °F 46.0 °F 72% 29.84 in 10.0 mi South 4.6 mph - N/A   Clear
3:53 AM 55.4 °F 46.4 °F 72% 30.05 in 10.0 mi SSW 6.9 mph - N/A   Clear
4:53 AM 53.1 °F 46.9 °F 80% 29.86 in 10.0 mi South 5.8 mph - N/A   Mostly Cloudy
5:53 AM 57.9 °F 46.0 °F 65% 29.87 in 10.0 mi SSW 5.8 mph - N/A   Mostly Cloudy
6:53 AM 57.0 °F 48.0 °F 72% 29.88 in 10.0 mi Calm Calm - N/A   Mostly Cloudy
7:53 AM 60.8 °F 48.2 °F 63% 30.08 in 10.0 mi SSW 3.5 mph - N/A   Mostly Cloudy
8:53 AM 64.0 °F 51.1 °F 63% 29.90 in 10.0 mi NE 4.6 mph - N/A   Mostly Cloudy
9:53 AM 70.0 °F 46.9 °F 44% 29.90 in 10.0 mi SSW 6.9 mph 16.1 mph N/A   Mostly Cloudy
10:53 AM 72.0 °F 46.9 °F 41% 29.90 in 10.0 mi SSW 8.1 mph - N/A   Mostly Cloudy
11:53 AM 71.1 °F 46.0 °F 41% 29.89 in 10.0 mi SSW 9.2 mph - N/A   Overcast
12:53 PM 73.4 °F 46.4 °F 38% 30.07 in 10.0 mi SSW 13.8 mph 20.7 mph N/A   Mostly Cloudy
1:53 PM 72.0 °F 45.0 °F 38% 29.86 in 10.0 mi SW 10.4 mph - N/A   Mostly Cloudy
3:53 PM 72.0 °F 46.9 °F 41% 29.83 in 10.0 mi West 6.9 mph - N/A   Mostly Cloudy
4:53 PM 71.6 °F 44.6 °F 38% 30.02 in 10.0 mi WSW 10.4 mph - N/A   Mostly Cloudy
5:53 PM 72.0 °F 44.1 °F 37% 29.82 in 10.0 mi SW 13.8 mph 20.7 mph N/A   Mostly Cloudy
6:53 PM 66.9 °F 48.0 °F 51% 29.84 in 10.0 mi WSW 4.6 mph - N/A   Mostly Cloudy
7:53 PM 64.0 °F 48.0 °F 56% 29.86 in 10.0 mi WSW 4.6 mph - N/A   Clear
8:53 PM 63.0 °F 48.9 °F 60% 29.87 in 10.0 mi WSW 3.5 mph - N/A   Partly Cloudy
9:53 PM 60.1 °F 50.0 °F 69% 29.87 in 10.0 mi SSW 4.6 mph - N/A   Clear
10:53 PM 59.0 °F 48.9 °F 69% 29.86 in 10.0 mi South 6.9 mph - N/A   Clear
11:53 PM 59.0 °F 48.0 °F 67% 29.86 in 10.0 mi South 8.1 mph - N/A   Clear